Weather History for Enid Vance AFB, OK

Change the Weather History Date:

Wednesday, March 6, 2013

  Actual Average Record
Temperature  
Mean Temperature 36 °F -  
Max Temperature 50 °F 52 °F 80 °F (2009)
Min Temperature 23 °F 31 °F 14 °F (2003)
Degree Days  
Heating Degree Days 28    
Moisture  
Dew Point 23 °F    
Average Humidity 62    
Maximum Humidity 100    
Minimum Humidity 34    
Precipitation  
Precipitation 0.00 in - - ()
Sea Level Pressure  
Sea Level Pressure 30.33 in    
Wind  
Wind Speed 7 mph (ESE)    
Max Wind Speed 13 mph    
Max Gust Speed -    
Visibility 10 miles    
Events      
Averages and records for this station are not official NWS values.
T = Trace of Precipitation, MM = Missing Value Source: NWS Daily Summary

Daily Weather History Graph

Daily Weather History Graph

Search for Another Location

Airport:

Trip Planner

Search our weather history database for the weather conditions in past years. The results will help you decide how hot, cold, wet, or windy it might be!

Date:

Astronomy

Mar. 06, 2013 Rise Set
Actual Time 6:54 AM CST 6:31 PM CST
Civil Twilight 6:29 AM CST 6:57 PM CST
Nautical Twilight 5:59 AM CST 7:26 PM CST
Astronomical Twilight 5:29 AM CST 7:56 PM CST
Moon 2:58 AM CST (3/6) 1:21 PM CST (3/6)
Length of Visible Light 12h 27m
Length of Day
11h 36m
Waning Crescent, 29% of the Moon is Illuminated
Mar 6
Waning Crescent
Mar 11
New
Mar 19
First Quarter
Mar 27
Full
Apr 2
Last Quarter

Hourly Weather History & Observations

Time (CST) Temp. Windchill Dew Point Humidity Pressure Visibility Wind Dir Wind Speed Gust Speed Precip Events Conditions
12:56 AM 30.2 °F 25.4 °F 23.0 °F 75% 30.38 in 10.0 mi North 4.6 mph - N/A   Clear
1:56 AM 24.8 °F 16.9 °F 23.0 °F 93% 30.39 in 10.0 mi West 6.9 mph - N/A   Clear
2:56 AM 23.0 °F - 23.0 °F 100% 30.39 in 10.0 mi North 2.3 mph - N/A   Clear
3:55 AM 24.8 °F 16.1 °F 21.2 °F 86% 30.40 in 10.0 mi ENE 8.1 mph - N/A   Clear
3:56 AM 26.6 °F 18.2 °F 21.2 °F 80% 30.37 in 10.0 mi NE 8.1 mph - N/A   Clear
4:55 AM 26.6 °F 18.2 °F 21.2 °F 80% 30.40 in 10.0 mi NE 8.1 mph - N/A   Clear
4:56 AM 26.6 °F 18.2 °F 21.2 °F 80% 30.37 in 10.0 mi NE 8.1 mph - N/A   Clear
5:56 AM 24.8 °F 16.9 °F 21.2 °F 86% 30.42 in 10.0 mi ENE 6.9 mph - N/A   Partly Cloudy
6:58 AM 26.6 °F - 21.2 °F 80% 30.43 in 10.0 mi Variable 2.3 mph - N/A   Partly Cloudy
7:56 AM 28.4 °F - 24.8 °F 86% 30.46 in 10.0 mi Variable 2.3 mph - N/A   Scattered Clouds
8:58 AM 33.8 °F 27.0 °F 21.2 °F 60% 30.47 in 10.0 mi East 8.1 mph - N/A   Mostly Cloudy
9:55 AM 35.6 °F 28.6 °F 23.0 °F 60% 30.45 in 10.0 mi SE 9.2 mph - N/A   Mostly Cloudy
10:55 AM 39.2 °F 33.0 °F 24.8 °F 56% 30.44 in 10.0 mi ESE 9.2 mph - N/A   Mostly Cloudy
11:55 AM 41.0 °F 34.7 °F 24.8 °F 53% 30.42 in 10.0 mi SE 10.4 mph - N/A   Mostly Cloudy
12:55 PM 42.8 °F 37.5 °F 23.0 °F 46% 30.39 in 10.0 mi SE 9.2 mph - N/A   Mostly Cloudy
1:55 PM 46.4 °F 41.1 °F 24.8 °F 43% 30.33 in 10.0 mi SSE 11.5 mph - N/A   Mostly Cloudy
2:58 PM 48.2 °F - 23.0 °F 37% 30.30 in 10.0 mi SE 11.5 mph - N/A   Overcast
3:55 PM 50.0 °F - 23.0 °F 35% 30.27 in 10.0 mi SE 12.7 mph - N/A   Scattered Clouds
4:55 PM 50.0 °F - 23.0 °F 35% 30.23 in 10.0 mi SSE 12.7 mph - N/A   Mostly Cloudy
5:55 PM 48.2 °F - 21.2 °F 34% 30.22 in 10.0 mi SE 10.4 mph - N/A   Mostly Cloudy
6:58 PM 44.8 °F 41.0 °F 25.2 °F 46% 30.18 in 10.0 mi SE 6.9 mph - N/A   Clear
7:58 PM 42.3 °F 37.3 °F 25.0 °F 50% 30.16 in 10.0 mi SE 8.1 mph - N/A   Clear
8:58 PM 40.6 °F 34.8 °F 25.0 °F 54% 30.16 in 10.0 mi ESE 9.2 mph - N/A   Clear
9:58 PM 39.7 °F 33.2 °F 24.4 °F 54% 30.16 in 10.0 mi SE 10.4 mph - N/A   Clear
10:58 PM 38.8 °F 31.6 °F 24.6 °F 57% 30.18 in 10.0 mi SE 11.5 mph - N/A   Clear
11:58 PM 38.5 °F 31.1 °F 24.8 °F 58% 30.17 in 10.0 mi ESE 11.5 mph - N/A   Clear